Regional Weather Roundup
Issued by NWS

Home | Current Version | Previous Version | Graphics & Text | Print | Product List | Glossary On
Versions: 1 2 3 4 5 6 7 8 9 10 11 12 13 14 15 16 17 18 19 20 21 22 23 24 25 26 27 28 29 30 31 32 33 34 35 36 37 38 39 40 41 42 43 44 45 46 47 48 49 50
000
ASUS45 KTFX 011704
RWRMT
MONTANA REGIONAL WEATHER ROUNDUP
NATIONAL WEATHER SERVICE GREAT FALLS MT
1100 AM MDT TUE SEP 01 2015

NOTE: "FAIR" INDICATES FEW OR NO CLOUDS BELOW 12000 FEET WITH NO
SIGNIFICANT WEATHER AND/OR OBSTRUCTIONS TO VISIBILITY.

MTZ001>007-043-011800-
WEST OF THE DIVIDE

CITY           SKY/WX    TMP DP  RH WIND       PRES   REMARKS
KALISPELL      SUNNY     69  38  32 SW14      29.89F
MISSOULA       SUNNY     61  44  53 CALM      29.95F
BUTTE          SUNNY     68  34  28 CALM      30.02F
MULLAN PASS    MOSUNNY   51  39  63 VRB6      30.01S
DEER LODGE       N/A     63  39  42 NE3       30.01F
EUREKA           N/A     66  39  37 S10       29.89S
HAMILTON         N/A     63  45  51 W1        29.95F
LIBBY            N/A     64  39  39 SE5       29.90F
$$

MTZ008-052>055-011800-
SOUTHWEST MONTANA

CITY           SKY/WX    TMP DP  RH WIND       PRES   REMARKS
BOZEMAN        SUNNY     70  39  32 CALM      29.97F
DILLON         SUNNY     71  34  25 SW9       30.00F
W YELLOWSTONE  SUNNY     63  32  31 CALM      30.13S
$$

MTZ009-010-012-014-046-048-049-054-011800-
EAST SLOPES AND CENTRAL MONTANA

CITY           SKY/WX    TMP DP  RH WIND       PRES   REMARKS
CUT BANK       CLOUDY    67  31  26 SW24G31   29.81S
GREAT FALLS    PTSUNNY   75  38  26 SW22G33   29.85S
MALMSTROM AFB  PTSUNNY   73  38  27 SW29G35   29.86S
HELENA         SUNNY     68  42  38 VRB5      29.93F
$$

MTZ011-013-016-021-045-047-050-051-011800-
NORTH CENTRAL MONTANA

CITY           SKY/WX    TMP DP  RH WIND       PRES   REMARKS
HAVRE          MOSUNNY   77  37  23 W21G30    29.77F
LEWISTOWN      MOSUNNY   75  40  28 NW7       29.91R
N BAR RANCH      N/A     73  37  27 VRB6      29.93S
CHINOOK          N/A     73  39  29 SW18      29.77F
FORT BENTON      N/A     77  34  20 SW17G28   29.83S
$$

MTZ017>020-022>027-061-062-011800-
NORTHEAST MONTANA

CITY           SKY/WX    TMP DP  RH WIND       PRES   REMARKS
GLASGOW        SUNNY     71  48  43 CALM      29.79R
JORDAN           N/A     82  38  20 NW14G21   29.81S
SIDNEY         SUNNY     75  57  53 S13       29.80F
WOLF POINT     SUNNY     76  48  37 CALM      29.78F
PLENTYWOOD       N/A     73  46  38 S10       29.80F
POPLAR           N/A     75  52  43 SW5       29.79S
$$

MTZ028>42-056>058-011800-
SOUTHCENTRAL AND SOUTHEAST MONTANA

CITY           SKY/WX    TMP DP  RH WIND       PRES   REMARKS
BAKER          SUNNY     81  58  45 VRB5      29.87S
BILLINGS       MOSUNNY   80  33  18 W8        29.89F
LIVINGSTON     SUNNY     76  34  21 W8        29.94F
MILES CITY     SUNNY     78  55  44 SW3       29.83S
FORSYTH          N/A     75  45  33 W7        29.84S
$$

REGIONAL REPORTS...DAKOTAS

CITY           SKY/WX    TMP DP  RH WIND       PRES   REMARKS
WILLISTON      SUNNY     77  56  48 S5        29.81F
MINOT          SUNNY     80  55  42 SW12      29.83S
DICKINSON      SUNNY     80  58  46 SE13      29.84F
BISMARCK       SUNNY     79  60  52 S13       29.86F
GRAND FORKS    MOSUNNY   80  55  42 SW10      29.85F
FARGO          SUNNY     82  56  40 SE7       29.87S
BUFFALO SD       N/A     76  61  59 CALM      29.81F
RAPID CITY     SUNNY     76  60  57 VRB5      29.89R
$$

REGIONAL REPORTS...WYOMING/IDAHO/WASHINGTON

CITY           SKY/WX    TMP DP  RH WIND       PRES   REMARKS
GILLETTE       SUNNY     84  33  16 W7        29.94S
SHERIDAN       SUNNY     82  36  19 CALM      29.91F
BUFFALO WY     SUNNY     82  31  15 E9        29.99S
CODY           SUNNY     81  30  16 W7        29.98S
YELLOWSTONE LA   N/A     60  40  47 VRB3      30.21F
IDAHO FALLS    SUNNY     69  38  32 CALM      30.03S
SALMON         SUNNY     63  37  39 N3        29.97F
BOISE          MOSUNNY   72  39  30 CALM      29.93S HAZE
SPOKANE        PTSUNNY   61  46  57 S14G21    29.92S
$$

REGIONAL REPORTS...ALBERTA

CITY           SKY/WX    TMP DP  RH WIND       PRES   REMARKS
$$

REGIONAL REPORTS...SASKATCHEWAN

CITY           SKY/WX    TMP DP  RH WIND       PRES   REMARKS
$$



USA.gov is the U.S. government's official web portal to all federal, state and local government web resources and services.